Regional Weather Roundup
Issued by NWS State College, PA

Home | Current Version | Previous Version | Graphics & Text | Print | Product List | Glossary Off
Versions: 1 2 3 4 5 6 7 8 9 10 11 12 13 14 15 16 17 18 19 20 21 22 23 24 25 26 27 28 29 30 31 32 33 34 35 36 37 38 39 40 41 42 43 44 45 46 47 48 49 50

000
ASUS41 KCTP 172303
RWRCTP

REGIONAL WEATHER ROUNDUP
NATIONAL WEATHER SERVICE STATE COLLEGE PA
700 PM EDT FRI APR 17 2015

Note: "fair" indicates few or no clouds below 12,000 feet with no
significant weather and/or obstructions to visibility.

* = STATION THAT DOES NOT REPORT PRECIPITATION /E.G. RAIN...SNOW...ETC/
    THUNDER OR FOG.

PAZ002>004-007>009-013>016-020>023-029>032-180000-
WESTERN PENNSYLVANIA

CITY           SKY/WX    TMP DP  RH WIND       PRES   REMARKS
ERIE           SUNNY     61  46  57 W8        30.03S
MEADVILLE      SUNNY     64  46  52 NW7       30.02S
FRANKLIN*      SUNNY     63  45  51 NW7       30.03F
NEW CASTLE     FAIR      68  47  46 CALM      30.03S
BEAVER COUNTY  SUNNY     68  46  45 N7        30.02
BUTLER*        SUNNY     66  48  52 NW6       30.04S
PITTSBURGH INT PTSUNNY   70  48  45 NW8       30.01S
PITTSBURGH     MOSUNNY   68  45  43 N5        30.00S
INDIANA*       PTCLDY    64  52  63 W5        30.05S
LATROBE        MOSUNNY   68  50  52 NW6       30.03
WASHINGTON CO* SUNNY     70  48  46 NW5       30.03S
$$

PAZ004>006-010>012-017>019-024>028-033>037-041-042-045-046-049>053-180000-
CENTRAL PENNSYLVANIA

CITY           SKY/WX    TMP DP  RH WIND       PRES   REMARKS
BRADFORD       PTCLDY    61  43  51 NW12      30.01R
DUBOIS         PTCLDY    65  46  50 NW9       30.01R
CLEARFIELD     CLEAR     65  47  52 W7        30.00S
JOHNSTOWN      PTCLDY    61  49  64 NW10      30.02R
ALTOONA        MOCLDY    66  49  54 NW13      30.00R
STATE COLLEGE  CLEAR     66  48  52 W13       29.98S
WILLIAMSPORT   CLEAR     69  47  45 W7        29.93R
SELINSGROVE    MOCLDY    71  50  47 W10       29.94S
FT INDIANTOWN  PTCLDY    71  52  52 W8        29.94S
CAPITAL CITY   PTCLDY    71  50  47 W8        29.94S
HARRISBURG     PTCLDY    69  52  54 NW8       29.94R
YORK           PTCLDY    71  54  54 NW6       29.94S
$$

PAZ038>040-043-044-047-048-054-055-060>062-067>071-180000-
EASTERN PENNSYLVANIA

CITY           SKY/WX    TMP DP  RH WIND       PRES   REMARKS
SCRANTON       MOCLDY    68  50  52 SW7       29.93F
MOUNT POCONO   CLEAR     62  48  60 NW8       29.95F
ALLENTOWN      MOCLDY    69  54  58 W5        29.93S
QUAKERTOWN*    MOCLDY    68  55  64 CALM      29.94F
READING        PTCLDY    71  52  50 W9        29.92S
LANCASTER      PTCLDY    69  54  58 NW8       29.93S
COATESVILLE    MOCLDY    70  55  60 N5        29.95S
POTTSTOWN      MOCLDY    70  53  54 NW9       29.94S
BLUE BELL      PTCLDY    72  55  56 W5        29.92F
DOYLESTOWN     MOCLDY    68  54  60 VRB5      29.92S
WILLOW GROVE   NOT AVBL
NORTH PHILA    PTCLDY    73  53  49 W7        29.94S
PHILADELPHIA   MOCLDY    73  58  59 SW9       29.93S
$$


USA.gov is the U.S. government's official web portal to all federal, state and local government web resources and services.